Dewpoint
54 58 60 60 60 61 64 66 66 66 66 67 67 69 69 69 69 68 68 68 68 69 70 71 72 71 72 73 73 72 72 72 72
56 58 60 61 60 62 65 66 66 67 68 68 68 68 70 70 70 69 69 70 68 69 70 70 72 72 71 72 73 73 73 72 72
58 59 62 61 61 65 66 66 67 68 70 69 69 70 71 71 71 71 70 70 70 69 70 70 71 71 72 72 73 73 73 73 73
59 61 62 63 65 67 68 69 69 69 70 70 71 71 72 71 72 72 72 72 71 71 70 71 71 72 71 71 72 73 74 73 73
59 62 61 62 63 66 64 66 68 68 70 70 70 67 71 66 71 72 73 73 73 72 72 72 72 72 72 72 73 73 73 73 73
61 61 62 57 58 60 62 62 64 65 68 72 73 72 72 71 71 72 72 73 73 75 74 73 72 72 72 73 73 73 73 74 73
61 61 62 58 56 57 61 62 65 64 63 67 67 69 73 72 72 72 72 72 72 73 73 74 74 73 73 73 73 74 74 74 74
60 60 61 61 57 59 62 62 61 61 61 62 64 65 70 73 74 74 75 75 75 74 74 74 73 74 74 74 74 74 74 74 74
59 60 61 62 62 59 61 62 59 60 64 70 73 73 74 75 75 75 75 75 75 75 75 75 75 74 74 73 74 71 70 73 74
57 58 59 61 61 60 61 61 60 60 63 70 71 72 73 73 72 73 74 75 76 75 75 76 75 75 74 74 74 69 69 71 75
55 58 59 59 58 58 59 59 59 61 66 69 71 70 70 71 72 72 73 73 73 75 76 75 74 75 75 75 74 69 68 69 75
53 51 54 58 59 59 59 60 59 64 65 67 67 67 67 68 70 70 70 69 72 74 74 75 74 75 75 75 75 67 66 68 74
53 53 54 56 57 58 59 60 61 63 63 65 64 66 67 68 69 68 68 68 71 73 74 74 75 74 75 72 75 66 64 68 75
53 54 54 55 56 58 60 61 60 60 60 59 62 66 66 66 67 66 67 69 71 71 71 73 75 74 75 75 74 69 61 61 73
52 52 53 54 54 55 58 60 60 58 59 60 62 65 64 64 65 65 68 68 69 70 71 71 73 75 71 69 67 62 61 61 62
51 52 52 53 55 56 58 59 60 59 60 61 62 64 63 63 64 65 66 67 67 67 68 68 70 73 67 66 66 66 61 61 62
51 51 52 53 54 53 54 58 61 61 61 62 62 62 62 63 63 63 65 66 67 64 64 65 68 68 66 66 66 67 67 66 68
52 52 53 53 53 53 54 55 57 61 62 63 62 62 62 63 63 63 64 66 66 64 64 63 66 69 68 67 67 68 64 62 68
53 54 55 54 54 55 55 55 55 55 59 62 62 62 62 63 62 62 64 65 64 55 54 52 50 50 56 68 62 56 53 50 51
54 55 55 54 55 55 55 55 55 55 55 56 61 61 63 62 60 62 62 64 63 62 61 51 48 47 48 51 50 48 48 48 49
Lifted_Index
-2 -3 -4 -4 -5 -5 -6 -6 -5 -5 -4 -4 -3 -3 -3 -3 -3 -3 -3 -3 -3 -3 -3 -3 -3 -3 -3 -4 -4 -4 -4 -4 -3
-3 -4 -4 -5 -5 -5 -6 -5 -5 -5 -5 -4 -3 -3 -3 -3 -3 -3 -3 -3 -3 -3 -3 -3 -3 -3 -3 -4 -4 -4 -4 -4 -4
-4 -4 -5 -5 -5 -5 -5 -5 -5 -5 -5 -5 -4 -4 -4 -4 -4 -4 -4 -3 -3 -4 -4 -4 -4 -4 -4 -4 -4 -5 -5 -5 -4
-4 -5 -5 -5 -5 -5 -5 -5 -5 -5 -5 -5 -5 -5 -5 -5 -4 -4 -4 -4 -4 -4 -5 -5 -5 -4 -4 -4 -4 -5 -5 -5 -5
-5 -5 -5 -5 -5 -5 -5 -5 -5 -5 -5 -6 -5 -5 -5 -5 -5 -5 -5 -5 -5 -5 -5 -5 -5 -5 -5 -5 -5 -6 -6 -6 -6
-4 -4 -5 -5 -5 -5 -5 -4 -4 -4 -5 -5 -5 -5 -6 -6 -6 -6 -5 -5 -5 -6 -6 -6 -6 -6 -6 -6 -6 -6 -6 -6 -6
-3 -3 -4 -5 -5 -5 -5 -4 -3 -3 -4 -5 -6 -6 -7 -7 -7 -7 -6 -6 -6 -6 -6 -6 -6 -6 -7 -7 -7 -7 -7 -7 -7
-4 -4 -4 -4 -4 -5 -4 -4 -3 -3 -4 -6 -7 -7 -8 -8 -8 -8 -7 -7 -7 -7 -7 -7 -7 -7 -7 -7 -7 -7 -7 -7 -7
-4 -4 -4 -4 -4 -4 -4 -4 -4 -4 -5 -7 -8 -8 -9 -8 -8 -8 -8 -8 -8 -8 -8 -8 -8 -8 -8 -8 -8 -7 -7 -7 -7
-4 -5 -5 -5 -5 -4 -4 -4 -4 -4 -5 -7 -8 -9 -9 -8 -8 -8 -8 -8 -8 -8 -8 -9 -8 -8 -8 -8 -8 -8 -8 -8 -8
-5 -5 -5 -5 -5 -5 -4 -4 -4 -4 -5 -6 -7 -7 -7 -7 -7 -7 -7 -7 -7 -8 -8 -9 -9 -9 -9 -9 -8 -8 -8 -8 -8
-5 -5 -5 -5 -5 -5 -4 -4 -3 -4 -4 -5 -5 -5 -5 -5 -5 -5 -5 -5 -6 -7 -8 -8 -9 -9 -9 -9 -9 -8 -8 -8 -8
-5 -5 -5 -5 -5 -4 -4 -4 -3 -3 -3 -3 -3 -3 -3 -3 -3 -3 -3 -3 -4 -6 -7 -8 -9 -10 -10 -9 -9 -8 -8 -8 -8
-4 -4 -4 -4 -4 -4 -4 -4 -3 -2 -2 -1 -2 -2 -2 -2 -2 -2 -3 -3 -4 -5 -5 -7 -9 -10 -10 -10 -9 -9 -8 -8 -8
-2 -2 -2 -2 -2 -2 -3 -3 -3 -3 -2 -1 -1 -1 -1 -1 -1 -2 -3 -3 -4 -4 -4 -6 -8 -10 -11 -10 -9 -9 -9 -8 -8
-1 -1 -1 -1 -1 -1 -1 -2 -2 -3 -2 -2 -1 -1 -1 -1 -1 -1 -2 -2 -3 -3 -3 -3 -6 -8 -10 -10 -10 -9 -8 -8 -7
1 1 1 0 0 -0 -1 -1 -2 -3 -3 -3 -2 -2 -1 -0 -0 -0 -0 -1 -1 -1 -1 -2 -3 -6 -8 -9 -10 -9 -8 -7 -6
3 3 3 2 1 1 0 -0 -1 -2 -3 -3 -3 -3 -2 -1 -0 0 1 0 -0 0 -0 -1 -2 -4 -6 -8 -9 -9 -8 -6 -5
4 4 3 3 2 2 2 1 0 -0 -1 -2 -2 -2 -2 -2 -1 -0 0 1 1 1 1 0 -1 -3 -5 -7 -8 -8 -7 -6 -5
4 4 3 3 2 2 2 2 2 1 1 0 -1 -1 -2 -2 -2 -1 0 1 1 1 1 0 -1 -3 -5 -7 -7 -7 -6 -5 -4